TimeMDT,TemperatureF,Dew PointF,Humidity,Sea Level PressureIn,VisibilityMPH,Wind Direction,Wind SpeedMPH,Gust SpeedMPH,PrecipitationIn,Events,Conditions,WindDirDegrees,DateUTC
12:53 AM,46.9,14.0,27,30.12,10.0,NE,9.2,-,N/A,,Clear,40,2013-03-13 06:53:00
1:53 AM,46.0,16.0,30,30.13,10.0,NE,9.2,-,N/A,,Clear,40,2013-03-13 07:53:00
2:53 AM,45.0,19.0,36,30.13,10.0,NE,11.5,-,N/A,,Clear,40,2013-03-13 08:53:00
4:53 AM,39.9,18.0,41,30.14,10.0,East,8.1,-,N/A,,Clear,80,2013-03-13 10:53:00
5:53 AM,37.9,19.0,47,30.16,10.0,ENE,9.2,-,N/A,,Clear,60,2013-03-13 11:53:00
6:53 AM,39.9,21.0,47,30.18,10.0,NE,9.2,-,N/A,,Clear,40,2013-03-13 12:53:00
7:53 AM,36.0,19.0,50,30.24,10.0,East,5.8,-,N/A,,Clear,80,2013-03-13 13:53:00
8:53 AM,46.9,21.9,37,30.23,10.0,ENE,9.2,-,N/A,,Clear,60,2013-03-13 14:53:00
9:53 AM,55.0,21.9,28,30.22,10.0,East,10.4,-,N/A,,Clear,80,2013-03-13 15:53:00
10:53 AM,60.1,21.0,22,30.23,10.0,East,10.4,-,N/A,,Clear,90,2013-03-13 16:53:00
11:53 AM,64.0,21.0,19,30.22,10.0,East,6.9,-,N/A,,Clear,90,2013-03-13 17:53:00
12:53 PM,69.1,19.9,15,30.18,10.0,SE,9.2,-,N/A,,Clear,140,2013-03-13 18:53:00
1:53 PM,70.0,17.1,13,30.14,10.0,East,9.2,-,N/A,,Clear,90,2013-03-13 19:53:00
2:53 PM,75.0,15.1,10,30.10,10.0,SE,12.7,16.1,N/A,,Clear,140,2013-03-13 20:53:00
3:53 PM,73.0,12.9,10,30.10,10.0,Calm,Calm,-,N/A,,Clear,0,2013-03-13 21:53:00
4:53 PM,73.9,12.0,9,30.08,10.0,Variable,5.8,-,N/A,,Clear,0,2013-03-13 22:53:00
5:53 PM,73.9,10.0,9,30.07,10.0,SE,6.9,-,N/A,,Clear,140,2013-03-13 23:53:00
6:53 PM,72.0,7.0,8,30.08,10.0,SSW,5.8,-,N/A,,Clear,200,2013-03-14 00:53:00
7:53 PM,64.9,8.1,11,30.12,10.0,South,3.5,-,N/A,,Clear,190,2013-03-14 01:53:00
8:53 PM,57.0,10.9,16,30.12,10.0,Calm,Calm,-,N/A,,Clear,0,2013-03-14 02:53:00
9:53 PM,53.1,10.0,18,30.12,10.0,NNE,4.6,-,N/A,,Clear,30,2013-03-14 03:53:00
10:53 PM,48.9,6.1,18,30.13,10.0,North,4.6,-,N/A,,Clear,360,2013-03-14 04:53:00